CAPE
0 0 0 0 0 0 0 0 0 16 5 16 128 1457 1194 1037 571 562 771 227 215 207 705 892 1149 1120 872 711 442 132 0 0 0 0 0 173 424 414 394 117 0 0 7 73 172 182 246 343 395
0 0 0 0 0 0 0 0 0 2 7 44 554 922 1038 1090 1149 885 750 194 79 162 281 703 998 1028 911 709 496 110 0 0 0 0 0 73 346 532 621 540 112 0 0 42 79 63 185 271 237
0 0 0 0 0 0 0 2 0 1 0 0 0 0 3 1154 1547 994 492 267 171 84 225 544 628 782 777 637 382 28 0 0 0 0 0 0 94 173 212 170 6 0 0 0 20 1 0 15 49
0 0 0 0 0 0 0 22 26 17 0 0 0 37 716 1796 1402 787 526 479 230 4 107 312 409 677 760 682 471 171 9 0 0 0 18 25 14 34 89 31 0 0 0 4 11 0 0 0 6
0 0 0 0 0 0 0 23 71 7 0 0 0 25 349 2153 1192 725 951 594 18 0 1 25 90 259 523 696 661 459 254 182 214 130 78 75 41 39 59 19 0 0 0 0 0 0 0 0 2
0 0 0 0 0 0 0 0 174 106 0 12 364 1557 2117 2009 1507 1095 887 472 0 0 0 2 8 9 113 260 380 485 557 565 491 370 267 208 109 39 24 20 4 0 0 0 0 0 0 0 0
0 0 0 0 0 0 0 3 169 20 0 0 67 1260 1594 1613 1260 1163 816 519 65 0 0 0 0 6 5 13 38 70 118 170 219 248 259 193 85 41 39 57 115 202 184 77 26 0 0 0 0
0 0 0 0 0 0 0 0 33 19 0 0 228 279 1299 1239 1069 1334 1209 839 476 79 0 0 0 0 0 0 0 0 0 0 0 0 0 0 0 11 82 61 48 14 0 0 20 51 56 38 16
0 0 0 0 0 0 0 0 62 38 8 0 0 308 1256 1071 819 1475 1368 1089 747 373 177 50 0 1 1 0 0 0 0 0 0 0 0 0 0 1 3 0 0 0 44 103 43 2 0 0 0
0 0 0 0 0 0 0 0 0 0 0 0 26 1090 1116 897 757 821 1434 1333 1193 951 719 492 593 436 363 304 127 79 120 127 197 268 505 231 419 542 227 154 98 73 201 426 273 191 189 72 10
0 0 0 0 0 0 0 0 0 0 0 30 530 799 756 808 648 598 665 1267 1432 1362 1236 1156 1101 995 957 664 709 710 748 951 1043 1122 145 323 71 727 616 507 392 586 735 727 644 1124 869 667 494
0 0 0 0 0 0 0 0 0 0 0 80 157 255 523 638 442 490 101 684 1374 1496 1446 1518 1487 1530 1269 1196 1413 1388 1213 1370 93 0 0 0 0 0 0 0 0 0 0 0 8 22 268 345 391
0 0 0 0 0 0 0 0 0 0 0 54 14 0 62 182 222 551 191 1053 1530 1711 325 6 84 155 0 42 0 0 0 0 0 0 0 0 0 0 0 0 0 0 0 0 0 0 0 0 0
0 0 0 0 0 0 0 0 0 0 0 30 18 0 0 41 139 70 232 1258 1089 445 75 0 0 0 0 0 0 0 0 0 0 0 0 0 0 0 0 0 0 0 0 0 0 0 0 0 0
0 0 0 0 0 0 0 0 0 0 0 27 4 0 0 0 36 23 173 379 108 1 0 0 0 0 0 0 0 0 0 0 0 0 0 0 0 0 0 0 0 0 0 0 0 0 0 0 0
0 0 0 0 0 0 0 0 0 0 5 11 9 0 0 0 0 0 0 10 0 0 0 0 0 0 0 0 0 0 0 0 0 0 0 0 0 0 0 0 0 0 0 0 0 0 0 0 0
0 0 0 0 0 0 0 0 0 0 0 1 0 0 0 0 0 0 0 0 0 0 0 0 0 0 0 0 0 0 0 0 0 0 0 0 0 0 0 0 0 0 0 0 0 0 0 0 0
0 0 0 0 0 0 0 0 0 0 0 0 0 0 0 0 0 0 0 0 0 0 0 0 0 0 0 0 0 0 0 0 0 0 0 0 0 0 0 0 0 0 0 0 0 0 0 0 0
0 0 0 0 0 0 0 0 0 0 0 0 0 0 0 0 0 0 0 0 0 0 0 0 0 0 0 0 0 0 0 0 0 0 0 0 0 0 0 0 0 0 0 0 0 0 0 0 0
0 0 0 0 0 0 0 0 0 0 0 0 0 0 0 0 0 0 0 0 0 0 0 0 0 0 0 0 0 0 0 0 0 0 0 0 0 0 0 0 0 0 0 0 0 0 0 0 0
0 0 0 0 0 0 0 0 0 0 0 0 0 0 0 0 0 0 0 0 0 0 0 0 0 0 0 0 0 0 0 0 0 0 0 0 0 0 0 0 0 0 0 0 0 0 0 0 0
0 0 0 0 0 0 0 0 0 0 0 0 0 0 0 0 0 0 0 0 0 0 0 0 0 0 0 0 0 0 0 0 0 0 0 0 0 0 0 0 0 0 0 0 0 0 0 0 0
0 0 0 0 0 0 0 0 0 0 0 0 0 0 0 0 0 0 0 0 0 0 0 0 0 0 0 0 0 0 0 0 0 0 0 0 0 0 0 0 0 0 0 0 0 0 0 0 0
0 0 0 0 0 0 0 0 0 0 0 0 0 0 0 0 0 0 0 0 0 0 0 0 0 0 0 0 0 0 0 0 0 0 0 0 0 0 0 0 0 0 0 0 0 0 0 0 0
0 0 0 0 0 0 0 0 0 0 0 0 0 0 0 0 0 0 0 0 0 0 0 0 0 0 0 0 0 0 0 0 0 0 0 0 0 0 0 0 0 0 0 0 0 0 0 0 0
0 0 0 0 0 0 0 0 0 0 0 0 0 0 0 0 0 0 0 0 0 0 0 0 0 0 0 0 0 0 0 0 0 0 0 0 0 0 0 0 0 0 0 0 0 0 0 0 0
0 0 0 0 0 0 0 0 0 0 0 0 0 0 0 0 0 0 0 0 0 0 0 0 0 0 0 0 0 0 0 0 0 0 0 0 0 0 0 0 0 0 0 0 0 0 0 0 0
0 0 0 0 0 0 0 0 0 0 0 0 0 0 0 0 0 0 0 0 0 0 0 0 0 0 0 0 0 0 0 0 0 0 0 0 0 0 0 0 0 0 0 0 0 0 0 0 0
2 0 0 0 2 11 0 0 0 0 3 1 0 0 0 0 0 0 0 0 0 0 0 0 0 0 0 0 0 0 0 0 0 0 0 0 0 0 0 0 0 0 0 0 0 0 0 0 0
0 0 0 0 0 0 0 0 0 0 1 0 0 0 0 0 0 0 0 0 8 27 0 0 0 0 0 0 0 0 0 0 0 0 0 0 0 0 0 0 0 0 0 0 0 0 0 0 0
CIN
0 0 0 0 0 0 0 0 -37 -48 -152 -135 -142 -84 -77 -62 -85 -129 -271 -389 -492 -538 -391 -339 -291 -290 -317 -335 -385 -500 0 0 0 0 0 -380 -289 -281 -268 -334 0 0 -328 -297 -248 -241 -218 -191 -173
0 0 0 0 0 0 0 0 0 -24 -106 -154 -184 -119 -110 -122 -214 -343 -274 -482 -610 -585 -519 -387 -315 -297 -302 -323 -361 -534 0 0 0 0 0 -431 -300 -254 -225 -224 -320 0 0 -334 -295 -302 -241 -213 -195
0 0 0 0 0 0 0 -76 0 -70 0 0 0 0 -111 -139 -107 -286 -375 -460 -536 -651 -562 -428 -379 -325 -307 -327 -383 -629 0 0 0 0 0 0 -397 -338 -310 -307 -266 0 0 0 -325 -46 -13 -172 -273
0 0 0 0 0 0 0 -239 -50 -136 -2 0 0 -97 -214 -93 -161 -342 -414 -414 -503 -390 -631 -492 -443 -350 -318 -318 -366 -473 -628 0 0 0 -497 -474 -467 -422 -352 -377 0 0 0 -122 -347 -1 0 0 -313
0 0 0 0 0 0 0 -55 -96 -34 0 0 0 -362 -243 -52 -220 -296 -394 -371 -491 0 -422 -699 -611 -476 -350 -294 -292 -335 -390 -414 -377 -409 -427 -410 -420 -398 -357 -393 0 0 0 0 0 0 0 0 -289
0 0 0 0 0 0 0 0 -31 -39 0 -237 -213 -157 -89 -51 -118 -215 -422 -440 0 0 0 -741 -697 -657 -532 -420 -352 -308 -283 -269 -273 -295 -308 -312 -338 -373 -386 -361 -191 0 0 0 0 0 0 0 0
0 0 0 0 0 0 0 -16 -14 -97 -61 0 -271 -144 -109 -71 -81 -246 -389 -389 -542 0 0 0 -41 -582 -644 -600 -538 -484 -424 -376 -330 -305 -284 -294 -325 -346 -330 -305 -272 -232 -237 -277 -241 0 0 0 0
0 0 0 0 0 0 0 0 -9 -24 0 0 -174 -177 -146 -119 -89 -177 -229 -278 -375 -541 0 0 0 0 0 0 0 0 0 0 0 0 0 0 0 -365 -286 -297 -309 -327 0 0 -294 -283 -282 -309 -335
0 0 0 0 0 0 0 0 -19 -47 -129 0 0 -193 -154 -135 -96 -105 -170 -213 -290 -391 -486 -584 0 -99 -154 0 0 0 0 0 0 0 0 0 0 -91 -105 0 0 0 -279 -235 -295 -158 0 0 0
0 0 0 0 0 0 0 0 -19 0 0 0 -110 -83 -125 -133 -110 -80 -71 -122 -198 -260 -281 -320 -289 -299 -300 -285 -361 -368 -323 -287 -233 -178 -106 -186 -110 -83 -140 -180 -226 -233 -143 -88 -140 -177 -183 -286 -208
0 0 0 0 0 0 0 0 0 0 0 -108 -122 -128 -111 -123 -73 -69 -68 -81 -131 -212 -210 -168 -166 -164 -122 -159 -160 -145 -121 -69 -35 -12 -4 -100 -9 -51 -38 -42 -58 -39 -31 -35 -38 -24 -47 -73 -114
0 0 0 0 0 0 0 0 0 0 0 -144 -158 -160 -107 -101 -80 -76 -46 -59 -103 -128 -110 -107 -78 -45 -79 -85 -43 -32 -35 -19 -232 0 0 0 0 0 0 0 0 0 0 0 -108 -231 -116 -101 -83
0 0 0 0 0 0 0 0 0 0 0 -112 -151 0 -127 -113 -81 -44 -37 -88 -101 -85 -234 -277 -204 -173 0 -191 0 0 0 0 0 0 0 0 0 0 0 0 0 0 0 0 0 0 0 0 0
0 0 0 0 0 0 0 0 0 0 0 -109 -112 0 -41 -141 -89 -61 -62 -104 -128 -279 -445 0 0 0 0 0 0 0 0 0 0 0 0 0 0 0 0 0 0 0 0 0 0 0 0 0 0
0 0 0 0 0 0 0 0 0 0 0 -86 -113 0 0 0 -128 -40 -103 -162 -291 -37 0 0 0 0 0 0 0 0 0 0 0 0 0 0 0 0 0 0 0 0 0 0 0 0 0 0 0
0 0 0 0 0 0 0 0 0 0 -39 -75 -107 0 0 0 0 0 0 -209 0 0 0 0 0 0 0 0 0 0 0 0 0 0 0 0 0 0 0 0 0 0 0 0 0 0 0 0 0
0 0 0 0 0 0 0 0 0 0 0 -22 0 0 0 0 0 0 0 0 0 0 0 0 0 0 0 0 0 0 0 0 0 0 0 0 0 0 0 0 0 0 0 0 0 0 0 0 0
0 0 0 0 0 0 0 0 0 0 0 0 0 0 0 0 0 0 0 0 0 0 0 0 0 0 0 0 0 0 0 0 0 0 0 0 0 0 0 0 0 0 0 0 0 0 0 0 0
0 0 0 0 0 0 0 0 0 0 0 0 0 0 0 0 0 0 0 0 0 0 0 0 0 0 0 0 0 0 0 0 0 0 0 0 0 0 0 0 0 0 0 0 0 0 0 0 0
0 0 0 0 0 0 0 0 0 0 0 0 0 0 0 0 0 0 0 0 0 0 0 0 0 0 0 0 0 0 0 0 0 0 0 0 0 0 0 0 0 0 0 0 0 0 0 0 0
0 0 0 0 0 0 0 0 0 0 0 0 0 0 0 0 0 0 0 0 0 0 0 0 0 0 0 0 0 0 0 0 0 0 0 0 0 0 0 0 0 0 0 0 0 0 0 0 0
0 0 0 0 0 0 0 0 0 0 0 0 0 0 0 0 0 0 0 0 0 0 0 0 0 0 0 0 0 0 0 0 0 0 0 0 0 0 0 0 0 0 0 0 0 0 0 0 0
0 0 0 0 0 0 0 0 0 0 0 0 0 0 0 0 0 0 0 0 0 0 0 0 0 0 0 0 0 0 0 0 0 0 0 0 0 0 0 0 0 0 0 0 0 0 0 0 0
0 0 0 0 0 0 0 0 0 0 0 0 0 0 0 0 0 0 0 0 0 0 0 0 0 0 0 0 0 0 0 0 0 0 0 0 0 0 0 0 0 0 0 0 0 0 0 0 0
0 0 0 0 0 0 0 0 0 0 0 0 0 0 0 0 0 0 0 0 0 0 0 0 0 0 0 0 0 0 0 0 0 0 0 0 0 0 0 0 0 0 0 0 0 0 0 0 0
0 0 0 0 0 0 0 0 0 0 0 0 0 0 0 0 0 0 0 0 0 0 0 0 0 0 0 0 0 0 0 0 0 0 0 0 0 0 0 0 0 0 0 0 0 0 0 0 0
0 0 0 0 0 0 0 0 0 0 0 0 0 0 0 0 0 0 0 0 0 0 0 0 0 0 0 0 0 0 0 0 0 0 0 0 0 0 0 0 0 0 0 0 0 0 0 0 0
0 0 -10 -9 0 0 0 0 0 0 0 0 0 0 0 0 0 0 0 0 0 0 0 0 0 0 0 0 0 0 0 0 0 0 0 0 0 0 0 0 0 0 0 0 0 0 0 0 0
-13 0 0 -3 -15 -1 0 0 0 0 -14 -62 0 0 0 0 0 0 0 0 0 0 0 0 0 0 0 0 0 0 0 0 0 0 0 0 0 0 0 0 0 0 0 0 0 0 0 0 0
0 0 0 0 0 0 0 0 0 0 -56 -1 0 0 0 0 0 0 0 0 -219 -244 0 0 0 0 0 0 0 0 0 0 0 0 0 0 0 0 0 0 0 0 0 0 0 0 0 0 0
Wind_Speed
23 23 20 20 20 19 23 19 12 4 18 27 18 10 6 5 8 7 8 15 16 15 11 12 13 15 16 16 16 17 18 18 18 19 20 20 21 21 21 22 22 21 21 21 21 22 22 21 20
23 23 22 22 22 23 24 7 8 21 29 23 17 13 11 8 12 18 9 15 15 13 11 11 13 14 14 14 15 16 17 17 18 18 18 19 19 19 19 19 19 19 18 18 18 19 19 18 15
22 20 22 22 23 28 21 19 13 31 30 26 12 9 9 8 11 8 21 21 17 13 11 11 12 13 13 14 14 14 15 16 16 16 16 16 16 16 16 16 17 16 16 16 16 16 16 16 15
20 20 24 27 31 33 27 5 26 28 25 5 8 9 8 11 10 17 22 19 16 15 15 15 14 13 13 12 12 13 14 14 14 14 13 13 13 13 14 14 14 14 14 14 14 14 13 13 13
21 23 29 29 32 32 27 4 8 22 5 5 6 5 6 9 21 21 21 19 18 16 14 13 13 13 14 13 13 12 12 12 12 12 11 11 11 12 12 12 13 13 13 13 12 12 12 12 12
24 22 30 32 33 32 30 23 12 10 9 5 6 5 6 12 14 13 19 17 16 15 13 11 11 12 12 12 12 12 11 11 11 11 11 11 11 11 11 11 12 12 12 12 12 12 12 12 13
27 29 36 35 35 35 31 15 4 4 3 5 5 4 3 7 10 14 16 17 16 16 13 11 10 10 10 10 11 11 11 11 11 11 11 11 11 11 10 10 10 10 11 11 11 11 10 11 11
27 27 35 36 34 34 28 27 7 3 9 8 6 9 5 10 10 14 14 13 14 14 16 14 12 10 9 9 10 10 11 11 12 12 12 12 11 11 10 10 9 9 9 9 9 8 8 8 9
27 33 41 38 36 34 29 31 3 5 8 6 13 3 15 15 13 10 9 10 13 13 14 15 13 11 9 9 9 10 11 11 11 12 12 12 11 10 10 8 7 6 7 7 4 3 1 1 1
32 36 44 36 39 35 32 30 8 3 4 2 1 5 14 13 10 6 4 6 8 15 17 16 15 13 13 12 12 12 12 12 12 12 12 11 11 9 8 7 6 6 6 5 3 2 3 3 2
35 45 40 40 42 37 37 31 23 8 14 7 7 8 10 7 7 6 5 7 7 14 15 16 16 14 13 12 13 11 11 11 11 12 14 14 16 15 14 12 12 8 7 6 5 4 4 3 3
42 40 38 45 43 39 38 33 29 19 12 7 8 8 7 6 5 6 2 7 10 12 13 12 12 10 11 12 11 11 11 11 12 14 15 17 18 18 19 20 21 21 22 16 24 24 17 6 2
41 39 37 37 45 44 41 34 32 26 8 9 10 8 8 6 5 8 3 9 12 12 10 11 11 10 9 10 11 11 11 12 12 15 16 16 17 19 21 22 24 24 25 25 27 27 28 26 23
36 39 40 39 35 46 41 34 30 33 18 10 11 10 8 8 6 4 4 11 10 9 8 8 8 9 8 8 9 10 10 11 12 14 16 17 18 20 21 23 24 25 26 28 29 30 30 30 29
39 40 40 40 39 40 38 38 35 36 17 13 11 11 9 8 6 3 7 10 9 7 7 4 5 6 7 7 7 8 9 10 11 13 15 17 18 20 22 23 25 25 26 28 28 29 30 29 29
38 39 45 41 35 33 32 44 34 37 12 13 13 11 10 11 8 5 6 7 5 6 4 2 4 4 5 5 6 7 8 9 11 12 14 17 19 21 22 23 25 26 27 26 27 27 27 29 30
36 46 46 43 36 33 33 39 37 29 14 16 14 14 12 12 9 7 8 8 6 4 1 3 2 2 3 4 5 6 8 9 10 11 14 16 19 21 23 24 26 27 27 27 26 27 28 30 31
39 42 44 43 34 37 38 41 39 32 26 19 17 16 16 17 15 11 10 9 7 5 3 2 1 1 2 3 4 4 7 7 9 10 13 16 18 21 23 25 26 28 28 28 29 29 29 29 31
37 38 42 39 35 33 42 40 39 37 28 29 23 20 21 20 15 12 11 10 8 6 5 4 4 3 2 1 1 2 3 6 8 10 12 15 17 20 23 24 26 28 29 30 30 29 30 30 30
39 43 48 44 39 32 38 47 40 34 37 30 30 24 22 22 19 16 13 13 12 10 7 6 6 5 4 3 2 2 3 5 6 8 12 14 16 19 22 24 26 27 29 30 31 31 30 29 30
38 41 44 45 43 35 33 43 42 28 30 37 28 27 25 23 21 19 18 15 13 12 10 9 9 8 6 4 4 5 5 7 9 9 12 13 15 18 20 22 25 27 28 30 31 31 30 30 30
41 38 38 41 38 43 32 46 39 29 26 24 28 23 23 23 20 18 19 18 17 14 12 11 11 11 9 8 7 5 6 6 10 9 11 12 14 17 18 20 22 24 27 30 30 29 30 30 32
37 36 36 35 37 41 45 39 40 25 32 26 28 27 21 22 20 21 21 21 19 15 15 13 12 13 12 11 9 8 9 11 11 9 9 12 17 19 19 20 20 22 25 27 28 30 30 28 29
35 32 38 39 36 43 43 40 49 38 35 25 21 37 29 25 21 21 21 21 20 17 16 14 14 14 14 13 12 11 10 11 9 9 12 15 19 21 19 22 20 23 25 28 29 27 28 29 28
26 29 40 41 42 47 36 40 50 31 29 24 26 31 29 25 21 19 20 22 21 19 18 17 15 14 12 13 13 12 12 12 10 11 14 17 19 21 22 24 24 26 28 29 29 29 28 28 28
32 29 37 44 42 45 41 39 47 40 48 43 29 32 20 25 23 18 20 22 23 22 19 18 17 14 12 11 12 12 13 12 13 15 17 18 19 20 23 25 26 28 29 29 28 28 28 28 28
37 40 32 35 39 42 39 38 49 46 38 39 29 22 13 13 13 10 12 18 19 20 20 19 18 16 13 11 10 12 13 14 15 15 17 17 19 22 23 24 28 30 31 30 29 29 29 28 28
30 32 35 31 42 46 43 41 41 39 26 16 10 10 8 8 8 9 7 5 8 17 18 17 17 16 13 10 10 10 11 12 12 12 15 17 20 22 25 27 29 30 31 30 30 30 29 29 29
30 39 29 28 33 38 43 39 27 24 16 16 8 9 10 12 13 12 12 12 8 10 15 16 16 14 12 10 11 11 10 9 10 13 15 18 20 22 24 27 29 31 31 31 30 30 29 28 28
36 32 30 38 40 32 36 44 35 24 19 31 13 5 12 15 16 15 13 15 15 9 13 15 14 13 12 11 10 8 7 8 9 12 14 17 20 22 25 27 29 30 31 31 31 32 30 30 32
Wind_Direction
281 277 284 279 269 269 253 261 50 293 211 178 181 43 41 337 274 3 64 90 88 83 72 68 73 82 87 83 77 77 81 79 75 74 76 76 76 74 71 69 70 74 75 75 74 71 70 70 79
283 277 276 263 260 264 277 340 36 143 169 83 64 59 31 16 48 83 61 83 87 81 72 69 75 79 81 80 77 78 82 82 80 79 81 82 78 74 69 65 66 69 71 72 71 70 71 74 89
283 279 268 261 258 247 280 328 116 152 160 158 48 358 332 50 44 43 95 93 82 77 72 71 75 78 81 80 78 79 81 82 82 83 83 81 77 74 69 66 69 71 72 74 71 68 66 66 67
282 276 267 254 245 242 266 49 172 200 166 34 40 3 6 48 55 88 99 88 80 80 79 79 76 75 77 74 73 76 80 80 78 75 71 68 66 65 63 59 59 59 60 61 60 58 60 60 60
279 270 254 250 247 249 257 157 81 146 108 35 353 343 14 41 93 96 95 87 83 83 78 74 74 74 74 76 74 73 73 71 65 61 57 54 56 54 48 44 38 36 39 42 42 41 41 41 42
268 270 251 247 246 247 263 250 98 86 85 25 24 43 47 81 88 88 92 82 80 81 78 69 70 70 70 69 68 65 62 57 54 51 50 49 50 47 45 37 32 34 35 33 30 25 21 19 17
261 260 248 249 250 257 267 223 356 66 43 300 97 65 65 88 91 97 92 84 81 83 81 75 67 62 59 58 59 58 58 54 51 51 57 63 63 58 53 45 40 38 32 26 21 20 18 14 10
261 264 252 249 250 248 264 295 308 324 298 112 113 278 142 116 101 104 96 81 73 84 96 95 84 71 58 49 50 50 51 52 51 52 49 44 48 54 47 51 53 46 39 29 22 20 13 9 3
264 256 248 247 248 247 270 302 350 354 115 290 275 146 124 120 116 111 93 81 78 79 85 95 90 76 70 60 53 52 52 50 47 46 42 44 50 62 52 64 72 64 48 38 47 44 51 30 331
251 252 247 252 248 258 271 292 301 289 234 293 319 125 124 126 137 137 130 109 93 93 98 101 97 86 81 68 76 73 67 60 56 50 51 58 55 63 59 78 81 65 66 60 80 156 200 194 187
254 249 253 256 253 264 273 281 283 231 255 226 167 159 141 141 148 157 157 145 128 109 103 107 100 92 81 72 77 64 62 66 54 45 25 30 15 20 18 30 32 55 59 71 85 169 85 115 157
253 255 259 249 250 262 265 275 280 268 253 187 182 166 171 201 183 166 172 151 135 115 101 86 93 85 77 77 73 83 78 60 44 30 16 10 7 360 351 348 347 357 353 17 338 346 15 55 124
254 259 263 263 251 252 265 276 271 281 221 195 190 190 205 207 191 167 130 140 133 116 86 77 75 74 61 71 50 45 45 44 37 26 19 12 7 358 348 341 334 333 333 341 330 334 312 292 276
263 263 261 260 262 250 261 270 272 260 266 203 204 217 201 195 195 222 157 145 133 119 97 79 63 42 39 22 17 19 28 32 35 27 27 22 18 7 358 348 340 338 332 324 321 312 310 320 329
262 263 262 259 262 258 262 263 262 252 268 204 211 218 224 227 193 184 155 150 141 129 108 86 49 10 11 10 13 15 15 39 34 33 32 26 22 16 5 356 348 348 340 334 334 328 324 330 330
262 264 255 256 262 262 263 256 263 256 258 213 211 214 223 238 212 200 176 172 160 143 125 80 17 11 12 16 21 23 42 40 41 37 30 21 17 11 4 358 353 348 345 346 344 343 339 335 333
260 253 255 258 260 264 261 258 259 262 239 218 213 225 234 240 240 227 205 196 192 193 227 317 355 358 17 18 30 41 41 40 31 37 22 15 9 4 359 355 350 348 347 346 347 343 342 335 331
256 257 256 255 261 262 260 259 257 257 258 234 224 227 239 245 243 227 217 215 210 220 250 282 248 118 103 16 32 37 19 30 25 22 12 5 3 359 355 352 347 344 343 341 338 338 338 337 333
264 262 257 261 264 263 263 266 257 254 259 250 242 238 239 243 243 221 218 217 210 212 241 233 217 201 198 237 20 31 23 22 19 11 5 360 358 356 355 353 348 344 341 338 337 338 338 338 338
261 260 258 262 266 270 261 258 265 251 251 257 254 249 241 246 239 230 219 221 215 212 226 226 213 211 221 224 292 339 22 10 10 5 357 355 355 353 352 350 349 347 343 339 337 337 337 338 340
263 260 260 260 265 274 269 264 258 252 256 256 259 253 242 239 235 228 227 220 214 210 213 220 215 222 228 228 291 311 334 343 347 350 348 351 353 350 350 351 349 347 346 342 339 338 337 337 338
264 265 270 265 265 260 269 262 265 251 249 263 260 247 239 234 232 213 220 224 212 212 219 220 218 231 241 248 266 270 290 305 322 332 338 344 348 347 348 347 347 347 346 342 340 339 335 333 331
267 270 273 274 267 266 262 267 261 253 254 258 264 262 227 222 221 221 221 217 215 215 215 219 221 228 242 259 263 271 287 304 317 328 338 338 339 339 340 342 344 345 345 344 341 337 335 335 333
276 271 271 270 270 262 260 260 256 263 262 269 260 262 250 233 238 228 222 215 219 219 219 219 220 224 228 243 268 265 274 293 302 316 323 330 333 337 340 339 341 341 341 340 338 338 336 333 333
272 270 264 263 259 258 267 262 259 272 272 269 275 268 255 236 230 223 220 219 220 216 218 223 221 227 230 233 256 265 265 277 292 304 316 323 328 331 336 337 337 337 337 336 335 333 333 332 331
270 270 264 261 261 263 266 269 264 271 267 270 282 284 251 225 224 229 220 216 214 216 217 219 222 227 225 234 249 268 271 274 286 299 309 317 323 329 330 331 333 334 334 335 335 334 332 330 329
267 263 274 265 269 269 268 271 262 264 274 269 267 276 261 219 227 238 232 225 225 221 221 221 222 229 232 244 249 260 266 268 277 294 305 314 320 324 328 331 330 331 332 332 331 330 329 327 326
268 272 264 264 260 261 264 268 269 278 282 256 242 243 232 214 231 243 249 283 236 216 222 222 222 227 231 237 251 270 274 267 274 293 306 313 319 323 324 326 328 330 331 331 330 328 326 324 323
279 275 259 269 264 263 262 265 278 295 290 278 237 236 234 242 249 255 268 278 297 224 224 226 227 230 231 239 260 278 279 264 277 291 303 311 318 322 325 326 327 329 329 330 328 327 325 322 321
277 274 275 263 261 266 264 262 264 299 290 260 272 246 254 258 257 259 268 278 286 239 232 221 221 225 232 246 268 266 264 272 285 297 306 314 319 322 324 326 327 328 328 328 327 325 324 321 319